Weather History for KMMV - November, 2012

Change the Weather History Date:

Saturday, November 24, 2012

  Actual Average Record
Temperature  
Mean Temperature 46 °F 43 °F  
Max Temperature 52 °F 50 °F 67 °F (1936)
Min Temperature 39 °F 37 °F 16 °F (1985)
Degree Days  
Heating Degree Days 20 22  
Month to date heating degree days 464  
Since 1 July heating degree days 1087  
Cooling Degree Days 0 0  
Month to date cooling degree days 0  
Year to date cooling degree days 215  
Moisture  
Dew Point 45 °F    
Average Humidity 91    
Maximum Humidity 100    
Minimum Humidity 77    
Precipitation  
Precipitation 0.06 in 0.24 in 2.56 in (1960)
Month to date precipitation 5.10  
Year to date precipitation 31.96  
Sea Level Pressure  
Sea Level Pressure 30.23 in    
Wind  
Wind Speed 2 mph (NW)    
Max Wind Speed 8 mph    
Max Gust Speed -    
Visibility 6 miles    
Events Fog , Rain    
T = Trace of Precipitation, MM = Missing Value Source: NWS Daily Summary

Daily Weather History Graph

Daily Weather History Graph

Search for Another Location

Airport or City:

Trip Planner

Search our weather history database for the weather conditions in past years. The results will help you decide how hot, cold, wet, or windy it might be!

Date:

Astronomy

Nov. 24, 2012 Rise Set
Actual Time 7:23 AM PST 4:35 PM PST
Civil Twilight 6:50 AM PST 5:07 PM PST
Nautical Twilight 6:14 AM PST 5:44 PM PST
Astronomical Twilight 5:39 AM PST 6:19 PM PST
Moon 2:29 PM PST (11/24) 3:37 AM PST (11/24)
Length of Visible Light 10h 17m
Length of Day
9h 11m
Waxing Gibbous, 88% of the Moon is Illuminated
Nov 24
Waxing Gibbous
Nov 28
Full
Dec 6
Last Quarter
Dec 13
New
Dec 19
First Quarter

Hourly Weather History & Observations

Time (PST) Temp. Windchill Dew Point Humidity Pressure Visibility Wind Dir Wind Speed Gust Speed Precip Events Conditions
12:53 AM 50.0 °F - 48.0 °F 93% 30.17 in 8.0 mi WNW 4.6 mph - 0.05 in Rain Light Rain
1:00 AM 50.0 °F - 48.2 °F 94% 30.17 in 10.0 mi West 8.1 mph - 0.00 in Rain Light Rain
1:25 AM 51.8 °F - 48.2 °F 88% 30.18 in 5.0 mi SW 6.9 mph - 0.01 in Rain Light Rain
1:39 AM 51.8 °F - 48.2 °F 88% 30.18 in 9.0 mi WSW 6.9 mph - 0.01 in   Overcast
1:53 AM 51.1 °F - 48.9 °F 92% 30.19 in 10.0 mi WNW 4.6 mph - 0.01 in   Overcast
2:53 AM 50.0 °F - 48.0 °F 93% 30.21 in 10.0 mi WNW 3.5 mph - N/A   Overcast
3:53 AM 48.9 °F - 46.9 °F 93% 30.21 in 7.0 mi Calm Calm - N/A   Mostly Cloudy
4:07 AM 48.2 °F - 46.4 °F 93% 30.21 in 1.8 mi WSW 4.6 mph - N/A   Scattered Clouds
4:26 AM 48.2 °F - 46.4 °F 93% 30.21 in 3.0 mi Calm Calm - N/A   Clear
4:32 AM 48.2 °F - 46.4 °F 93% 30.21 in 1.8 mi Calm Calm - N/A   Clear
4:38 AM 46.4 °F - 44.6 °F 93% 30.22 in 0.8 mi Calm Calm - N/A   Mist
4:50 AM 48.2 °F - 46.4 °F 93% 30.22 in 0.5 mi Calm Calm - N/A Fog Fog
4:53 AM 48.9 °F - 46.9 °F 93% 30.22 in 0.8 mi Calm Calm - N/A   Mostly Cloudy
5:06 AM 46.4 °F - 46.4 °F 100% 30.23 in 0.2 mi Calm Calm - N/A Fog Fog
5:14 AM 48.2 °F - 46.4 °F 93% 30.23 in 0.5 mi Calm Calm - N/A Fog Fog
5:53 AM 46.9 °F - 45.0 °F 93% 30.23 in 0.5 mi Calm Calm - N/A Fog Fog
6:08 AM 46.4 °F 45.2 °F 44.6 °F 93% 30.24 in 0.2 mi NE 3.5 mph - N/A Fog Fog
6:15 AM 46.4 °F 45.2 °F 44.6 °F 93% 30.24 in 0.2 mi NE 3.5 mph - N/A Fog Fog
6:22 AM 46.4 °F - 46.4 °F 100% 30.23 in 0.5 mi Calm Calm - N/A Fog Fog
6:31 AM 46.4 °F - 46.4 °F 100% 30.23 in 0.5 mi Calm Calm - N/A Fog Fog
6:53 AM 46.0 °F - 45.0 °F 96% 30.24 in 0.5 mi Calm Calm - N/A Fog Fog
7:46 AM 46.4 °F - 44.6 °F 93% 30.24 in 0.2 mi Calm Calm - N/A Fog Fog
7:53 AM 46.9 °F - 45.0 °F 93% 30.24 in 0.2 mi Calm Calm - N/A Fog Fog
8:32 AM 46.4 °F 45.2 °F 44.6 °F 93% 30.25 in 1.0 mi North 3.5 mph - N/A   Overcast
8:34 AM 46.4 °F 45.2 °F 44.6 °F 93% 30.25 in 2.0 mi North 3.5 mph - N/A   Overcast
8:37 AM 46.4 °F 45.2 °F 44.6 °F 93% 30.25 in 5.0 mi North 3.5 mph - N/A   Overcast
8:44 AM 46.4 °F 45.2 °F 44.6 °F 93% 30.25 in 10.0 mi NNW 3.5 mph - N/A   Mostly Cloudy
8:53 AM 46.9 °F - 45.0 °F 93% 30.25 in 10.0 mi North 3.5 mph - N/A   Scattered Clouds
9:08 AM 46.4 °F - 46.4 °F 100% 30.26 in 10.0 mi Calm Calm - N/A   Scattered Clouds
9:53 AM 48.0 °F - 46.0 °F 93% 30.26 in 10.0 mi Calm Calm - N/A   Scattered Clouds
10:02 AM 48.2 °F - 46.4 °F 93% 30.26 in 10.0 mi Calm Calm - N/A   Mostly Cloudy
10:53 AM 50.0 °F - 46.9 °F 89% 30.26 in 10.0 mi Calm Calm - N/A   Scattered Clouds
11:04 AM 50.0 °F - 46.4 °F 87% 30.25 in 10.0 mi Calm Calm - N/A   Mostly Cloudy
11:22 AM 50.0 °F - 46.4 °F 87% 30.25 in 10.0 mi Calm Calm - N/A   Mostly Cloudy
11:53 AM 50.0 °F - 46.9 °F 89% 30.25 in 10.0 mi Calm Calm - N/A   Mostly Cloudy
12:20 PM 51.8 °F - 46.4 °F 82% 30.24 in 10.0 mi Calm Calm - N/A   Mostly Cloudy
12:33 PM 51.8 °F - 46.4 °F 82% 30.24 in 10.0 mi Calm Calm - N/A   Overcast
12:53 PM 51.1 °F - 46.0 °F 83% 30.24 in 10.0 mi Calm Calm - N/A   Overcast
1:07 PM 51.8 °F - 46.4 °F 82% 30.23 in 10.0 mi Calm Calm - N/A   Mostly Cloudy
1:35 PM 51.8 °F - 46.4 °F 82% 30.23 in 10.0 mi Calm Calm - N/A   Mostly Cloudy
1:45 PM 51.8 °F - 46.4 °F 82% 30.23 in 10.0 mi Calm Calm - N/A   Unknown
1:53 PM 52.0 °F - 45.0 °F 77% 30.24 in 10.0 mi Calm Calm - N/A   Unknown
2:53 PM 52.0 °F - 46.0 °F 80% 30.22 in 10.0 mi Calm Calm - N/A   Mostly Cloudy
3:53 PM 51.1 °F - 46.9 °F 86% 30.23 in 10.0 mi Calm Calm - N/A   Mostly Cloudy
4:53 PM 48.9 °F - 46.0 °F 90% 30.22 in 10.0 mi Calm Calm - N/A   Partly Cloudy
5:53 PM 48.0 °F - 45.0 °F 89% 30.22 in 9.0 mi NW 3.5 mph - N/A   Mostly Cloudy
6:53 PM 46.0 °F - 44.1 °F 93% 30.23 in 10.0 mi Calm Calm - N/A   Scattered Clouds
7:53 PM 46.0 °F - 43.0 °F 89% 30.23 in 10.0 mi Calm Calm - N/A   Overcast
8:53 PM 43.0 °F - 41.0 °F 93% 30.24 in 10.0 mi Calm Calm - N/A   Overcast
9:53 PM 41.0 °F - 39.0 °F 93% 30.25 in 10.0 mi Calm Calm - N/A   Partly Cloudy
10:07 PM 41.0 °F - 39.2 °F 93% 30.24 in 1.8 mi Calm Calm - N/A   Partly Cloudy
10:16 PM 41.0 °F 38.0 °F 39.2 °F 93% 30.25 in 4.0 mi NW 4.6 mph - N/A   Partly Cloudy
10:53 PM 39.9 °F - 37.9 °F 93% 30.26 in 8.0 mi Calm Calm - N/A   Clear
11:04 PM 39.2 °F - 37.4 °F 93% 30.25 in 2.5 mi Calm Calm - N/A   Clear
11:12 PM 39.2 °F 37.0 °F 37.4 °F 93% 30.25 in 10.0 mi NNW 3.5 mph - N/A   Clear
11:53 PM 39.0 °F - 37.0 °F 93% 30.27 in 5.0 mi Calm Calm - N/A   Partly Cloudy